,,,PA_Meas_PMT16A,,PR_Meas_QMR101_102,,RH_Meas_QMH101,,SR_Meas_QMS101,,TA_Meas_QMH101,,GenWind,,GenWind,
date,time,status,PA,status,PR,status,RH,status,SR,status,TA,status,DirAvg,status,SpdAvg,
2008-06-14, 00:00:04,VALID,1004.84,VALID,0,VALID,86.1529,VALID,0,VALID,24.893,VALID,1,VALID,0.771875,
2008-06-14, 00:01:04,VALID,1004.85,VALID,0,VALID,86.0614,VALID,0,VALID,24.9125,VALID,337,VALID,0.432813,
2008-06-14, 00:02:04,VALID,1004.83,VALID,0,VALID,86.2064,VALID,0,VALID,24.9125,VALID,332,VALID,0.438281,
2008-06-14, 00:03:04,VALID,1004.84,VALID,0,VALID,86.2064,VALID,0,VALID,24.9125,VALID,264,VALID,0.267578,
2008-06-14, 00:04:04,VALID,1004.83,VALID,0,VALID,86.069,VALID,0,VALID,24.9319,VALID,266,VALID,0.643359,
2008-06-14, 00:05:04,VALID,1004.84,VALID,0,VALID,86.1682,VALID,0,VALID,24.9514,VALID,283,VALID,0.863672,
2008-06-14, 00:06:04,VALID,1004.82,VALID,0,VALID,85.8936,VALID,0,VALID,24.9709,VALID,283,VALID,0.149609,
2008-06-14, 00:07:04,VALID,1004.84,VALID,0,VALID,85.7105,VALID,0,VALID,24.9904,VALID,305,VALID,0.298438,
2008-06-14, 00:08:04,VALID,1004.83,VALID,0,VALID,85.8631,VALID,0,VALID,24.9904,VALID,356,VALID,0.130469,
2008-06-14, 00:09:04,VALID,1004.84,VALID,0,VALID,85.8707,VALID,0,VALID,24.9904,VALID,329,VALID,0.544141,
2008-06-14, 00:10:04,VALID,1004.82,VALID,0,VALID,85.7868,VALID,0,VALID,24.9904,VALID,10,VALID,0.464844,
2008-06-14, 00:11:04,VALID,1004.8,VALID,0,VALID,85.8707,VALID,0,VALID,24.9904,VALID,8,VALID,0.0675781,
2008-06-14, 00:12:04,VALID,1004.79,VALID,0,VALID,85.9775,VALID,0,VALID,24.9904,VALID,7,VALID,0.0414063,
2008-06-14, 00:13:04,VALID,1004.77,VALID,0,VALID,85.9775,VALID,0,VALID,24.9904,VALID,338,VALID,0.254297,
2008-06-14, 00:14:04,VALID,1004.73,VALID,0,VALID,86.2369,VALID,0,VALID,24.9904,VALID,307,VALID,0.251563,
2008-06-14, 00:15:04,VALID,1004.71,VALID,0,VALID,86.0614,VALID,0,VALID,24.9709,VALID,349,VALID,0.546875,
2008-06-14, 00:16:04,VALID,1004.72,VALID,0,VALID,86.1682,VALID,0,VALID,24.9728,VALID,355,VALID,0.558594,
2008-06-14, 00:17:04,VALID,1004.68,VALID,0,VALID,86.2445,VALID,0,VALID,24.9514,VALID,293,VALID,0.306641,
2008-06-14, 00:18:04,VALID,1004.68,VALID,0,VALID,86.4428,VALID,0,VALID,24.9514,VALID,287,VALID,0.232031,
2008-06-14, 00:19:04,VALID,1004.66,VALID,0,VALID,86.4886,VALID,0,VALID,24.9514,VALID,285,VALID,0.305469,
2008-06-14, 00:20:04,VALID,1004.66,VALID,0,VALID,86.4962,VALID,0,VALID,24.9514,VALID,276,VALID,0.397656,
2008-06-14, 00:21:04,VALID,1004.63,VALID,0,VALID,86.5268,VALID,0,VALID,24.9533,VALID,257,VALID,0.135937,
2008-06-14, 00:22:04,VALID,1004.62,VALID,0,VALID,86.5344,VALID,0,VALID,24.9125,VALID,349,VALID,0.336328,
2008-06-14, 00:23:04,VALID,1004.62,VALID,0,VALID,86.4657,VALID,0,VALID,24.9319,VALID,348,VALID,0.790234,
2008-06-14, 00:24:04,VALID,1004.63,VALID,0,VALID,86.6107,VALID,0,VALID,24.9125,VALID,338,VALID,0.161719,
2008-06-14, 00:25:04,VALID,1004.63,VALID,0,VALID,86.4505,VALID,0,VALID,24.9143,VALID,355,VALID,0.914844,
2008-06-14, 00:26:04,VALID,1004.61,VALID,0,VALID,86.4505,VALID,0,VALID,24.893,VALID,338,VALID,0.809375,
2008-06-14, 00:27:04,VALID,1004.61,VALID,0,VALID,86.5649,VALID,0,VALID,24.8949,VALID,356,VALID,0.355469,
2008-06-14, 00:28:04,VALID,1004.61,VALID,0,VALID,86.5725,VALID,0,VALID,24.854,VALID,350,VALID,0.639063,
2008-06-14, 00:29:04,VALID,1004.62,VALID,0,VALID,86.42,VALID,0,VALID,24.854,VALID,348,VALID,0.99375,
2008-06-14, 00:30:04,VALID,1004.6,VALID,0,VALID,86.4428,VALID,0,VALID,24.854,VALID,344,VALID,0.147656,
2008-06-14, 00:31:04,VALID,1004.62,VALID,0,VALID,86.7327,VALID,0,VALID,24.8735,VALID,344,VALID,0.0167969,
2008-06-14, 00:32:04,VALID,1004.59,VALID,0,VALID,86.5268,VALID,0,VALID,24.854,VALID,347,VALID,0.803125,
2008-06-14, 00:33:04,VALID,1004.57,VALID,0,VALID,86.3513,VALID,0,VALID,24.854,VALID,302,VALID,0.263672,
2008-06-14, 00:34:04,VALID,1004.54,VALID,0,VALID,86.5039,VALID,0,VALID,24.893,VALID,355,VALID,0.248828,
2008-06-14, 00:35:04,VALID,1004.5,VALID,0,VALID,86.5268,VALID,0,VALID,24.8522,VALID,355,VALID,0.122656,
2008-06-14, 00:36:04,VALID,1004.47,VALID,0,VALID,86.4886,VALID,0,VALID,24.8522,VALID,326,VALID,0.304688,
2008-06-14, 00:37:04,VALID,1004.47,VALID,0,VALID,86.542,VALID,0,VALID,24.8735,VALID,329,VALID,0.355469,
2008-06-14, 00:38:04,VALID,1004.45,VALID,0,VALID,86.5954,VALID,0,VALID,24.8327,VALID,329,VALID,0.108203,
2008-06-14, 00:39:04,VALID,1004.43,VALID,0,VALID,86.5725,VALID,0,VALID,24.8327,VALID,330,VALID,0.291016,
2008-06-14, 00:40:04,VALID,1004.41,VALID,0,VALID,86.42,VALID,0.100563,VALID,24.8735,VALID,346,VALID,0.765234,
2008-06-14, 00:41:04,VALID,1004.39,VALID,0,VALID,86.3513,VALID,0.100563,VALID,24.8522,VALID,301,VALID,0.402344,
2008-06-14, 00:42:04,VALID,1004.37,VALID,0,VALID,86.4276,VALID,0,VALID,24.8522,VALID,342,VALID,0.0976563,
2008-06-14, 00:43:04,VALID,1004.37,VALID,0,VALID,86.2979,VALID,0,VALID,24.8522,VALID,346,VALID,0.873828,
2008-06-14, 00:44:04,VALID,1004.34,VALID,0,VALID,86.2445,VALID,0.100563,VALID,24.893,VALID,8,VALID,0.673828,
2008-06-14, 00:45:04,VALID,1004.32,VALID,0,VALID,86.069,VALID,0,VALID,24.8716,VALID,6,VALID,0.523438,
2008-06-14, 00:46:04,VALID,1004.31,VALID,0,VALID,86.1072,VALID,0,VALID,24.8911,VALID,344,VALID,0.723047,
2008-06-14, 00:47:04,VALID,1004.28,VALID,0,VALID,86.2674,VALID,0,VALID,24.9319,VALID,320,VALID,0.410547,
2008-06-14, 00:48:04,VALID,1004.26,VALID,0,VALID,85.9699,VALID,0,VALID,24.8911,VALID,312,VALID,0.326953,
2008-06-14, 00:49:04,VALID,1004.28,VALID,0,VALID,85.9622,VALID,0,VALID,24.9125,VALID,312,VALID,0.0679687,
2008-06-14, 00:50:04,VALID,1004.23,VALID,0,VALID,85.9012,VALID,0,VALID,24.9338,VALID,349,VALID,0.515625,
2008-06-14, 00:51:04,VALID,1004.24,VALID,0,VALID,85.7105,VALID,0,VALID,24.9319,VALID,348,VALID,0.148438,
2008-06-14, 00:52:04,VALID,1004.23,VALID,0,VALID,85.5503,VALID,0,VALID,24.9319,VALID,355,VALID,0.38125,
2008-06-14, 00:53:04,VALID,1004.22,VALID,0,VALID,85.7486,VALID,0,VALID,24.9319,VALID,14,VALID,0.0113281,
2008-06-14, 00:54:04,VALID,1004.22,VALID,0,VALID,85.5884,VALID,0,VALID,24.9338,VALID,289,VALID,0.319531,
2008-06-14, 00:55:04,VALID,1004.19,VALID,0,VALID,85.3138,VALID,0,VALID,24.9338,VALID,333,VALID,0.747656,
2008-06-14, 00:56:04,VALID,1004.16,VALID,0,VALID,85.123,VALID,0,VALID,24.9319,VALID,325,VALID,0.736719,
2008-06-14, 00:57:04,VALID,1004.16,VALID,0,VALID,85.0239,VALID,0,VALID,24.9319,VALID,300,VALID,0.577344,
2008-06-14, 00:58:04,VALID,1004.14,VALID,0,VALID,85.1307,VALID,0,VALID,24.9709,VALID,314,VALID,0.341406,
2008-06-14, 00:59:04,VALID,1004.11,VALID,0,VALID,84.795,VALID,0,VALID,24.9709,VALID,321,VALID,0.195313,
2008-06-14, 01:00:04,VALID,1004.12,VALID,0,VALID,84.9934,VALID,0,VALID,24.9922,VALID,321,VALID,0.128516,
2008-06-14, 01:01:04,VALID,1004.08,VALID,0,VALID,85.0162,VALID,0,VALID,24.9709,VALID,320,VALID,0.0722656,
2008-06-14, 01:02:04,VALID,1004.08,VALID,0,VALID,84.5127,VALID,0,VALID,24.9709,VALID,357,VALID,0.838672,
2008-06-14, 01:03:04,VALID,1004.05,VALID,0,VALID,84.4288,VALID,0,VALID,24.9709,VALID,351,VALID,0.714453,
2008-06-14, 01:04:04,VALID,1004.04,VALID,0,VALID,84.5356,VALID,0,VALID,24.9885,VALID,355,VALID,0.00351562,
2008-06-14, 01:05:04,VALID,1004.01,VALID,0,VALID,84.6119,VALID,0.100563,VALID,24.9885,VALID,353,VALID,0.724609,
2008-06-14, 01:06:04,VALID,1004,VALID,0,VALID,84.5738,VALID,0,VALID,24.969,VALID,2,VALID,0.707422,
2008-06-14, 01:07:04,VALID,1003.99,VALID,0,VALID,84.4899,VALID,0.100563,VALID,24.969,VALID,340,VALID,0.697656,
2008-06-14, 01:08:04,VALID,1003.97,VALID,0,VALID,84.5509,VALID,0,VALID,24.969,VALID,345,VALID,0.814844,
2008-06-14, 01:09:04,VALID,1003.93,VALID,0,VALID,84.5433,VALID,0.100563,VALID,24.969,VALID,353,VALID,0.727344,
2008-06-14, 01:10:04,VALID,1003.93,VALID,0,VALID,84.6653,VALID,0,VALID,24.969,VALID,356,VALID,0.280859,
2008-06-14, 01:11:04,VALID,1003.92,VALID,0,VALID,84.6348,VALID,0,VALID,24.9709,VALID,337,VALID,0.551562,
2008-06-14, 01:12:04,VALID,1003.9,VALID,0,VALID,84.856,VALID,0.100563,VALID,24.9495,VALID,338,VALID,0.48125,
2008-06-14, 01:13:04,VALID,1003.9,VALID,0,VALID,84.8408,VALID,0.100563,VALID,24.9495,VALID,327,VALID,0.355859,
2008-06-14, 01:14:04,VALID,1003.89,VALID,0,VALID,84.7797,VALID,0.100563,VALID,24.9282,VALID,327,VALID,0.320313,
2008-06-14, 01:15:04,VALID,1003.88,VALID,0,VALID,84.8332,VALID,0,VALID,24.93,VALID,341,VALID,0.501172,
2008-06-14, 01:16:04,VALID,1003.87,VALID,0,VALID,84.8255,VALID,0.100563,VALID,24.9709,VALID,337,VALID,0.506641,
2008-06-14, 01:17:04,VALID,1003.86,VALID,0,VALID,84.6806,VALID,0,VALID,24.93,VALID,355,VALID,1.0668,
2008-06-14, 01:18:04,VALID,1003.86,VALID,0,VALID,84.6653,VALID,0.100563,VALID,24.9495,VALID,353,VALID,1.20703,
2008-06-14, 01:19:04,VALID,1003.85,VALID,0,VALID,84.7569,VALID,0.100563,VALID,24.9495,VALID,356,VALID,0.45625,
2008-06-14, 01:20:04,VALID,1003.85,VALID,0,VALID,84.8866,VALID,0,VALID,24.93,VALID,299,VALID,0.451953,
2008-06-14, 01:21:04,VALID,1003.83,VALID,0,VALID,85.0315,VALID,0.100563,VALID,24.9087,VALID,299,VALID,0.0117188,
2008-06-14, 01:22:04,VALID,1003.82,VALID,0,VALID,85.0696,VALID,0,VALID,24.8911,VALID,352,VALID,0.437891,
2008-06-14, 01:23:04,VALID,1003.83,VALID,0,VALID,85.1993,VALID,0.100563,VALID,24.9106,VALID,338,VALID,0.221875,
2008-06-14, 01:24:04,VALID,1003.82,VALID,0,VALID,85.3138,VALID,0.100563,VALID,24.893,VALID,338,VALID,0.24375,
2008-06-14, 01:25:04,VALID,1003.82,VALID,0,VALID,85.4663,VALID,0,VALID,24.8522,VALID,341,VALID,0.523047,
2008-06-14, 01:26:04,VALID,1003.8,VALID,0,VALID,85.4892,VALID,0.100563,VALID,24.8327,VALID,352,VALID,0.683984,
2008-06-14, 01:27:04,VALID,1003.79,VALID,0,VALID,85.535,VALID,0.100563,VALID,24.854,VALID,338,VALID,0.606641,
2008-06-14, 01:28:04,VALID,1003.79,VALID,0,VALID,85.5884,VALID,0.100563,VALID,24.854,VALID,334,VALID,0.0839844,
2008-06-14, 01:29:04,VALID,1003.78,VALID,0,VALID,85.7562,VALID,0.100563,VALID,24.8132,VALID,334,VALID,0.0945313,
2008-06-14, 01:30:04,VALID,1003.76,VALID,0,VALID,85.9699,VALID,0.100563,VALID,24.7937,VALID,334,VALID,0.101172,
2008-06-14, 01:31:04,VALID,1003.76,VALID,0,VALID,86.0843,VALID,0.100563,VALID,24.7548,VALID,331,VALID,0.242969,
2008-06-14, 01:32:04,VALID,1003.74,VALID,0,VALID,85.9088,VALID,0.100563,VALID,24.7548,VALID,360,VALID,0.702734,
2008-06-14, 01:33:04,VALID,1003.73,VALID,0,VALID,85.947,VALID,0.100563,VALID,24.7548,VALID,341,VALID,0.445703,
2008-06-14, 01:34:04,VALID,1003.7,VALID,0,VALID,85.9851,VALID,0,VALID,24.7567,VALID,344,VALID,0.592188,
2008-06-14, 01:35:04,VALID,1003.72,VALID,0,VALID,86.1148,VALID,0,VALID,24.7567,VALID,291,VALID,0.0316406,
2008-06-14, 01:36:04,VALID,1003.69,VALID,0,VALID,86.1377,VALID,0,VALID,24.7372,VALID,299,VALID,0.441797,
2008-06-14, 01:37:04,VALID,1003.73,VALID,0,VALID,86.2216,VALID,0,VALID,24.7177,VALID,334,VALID,0.107031,
2008-06-14, 01:38:04,VALID,1003.69,VALID,0,VALID,86.3055,VALID,0,VALID,24.7372,VALID,334,VALID,0.148828,
2008-06-14, 01:39:04,VALID,1003.71,VALID,0,VALID,86.4047,VALID,0,VALID,24.7372,VALID,343,VALID,0.139062,
2008-06-14, 01:40:04,VALID,1003.73,VALID,0,VALID,86.5649,VALID,0,VALID,24.7177,VALID,343,VALID,0,
2008-06-14, 01:41:04,VALID,1003.7,VALID,0,VALID,86.6259,VALID,0,VALID,24.6983,VALID,344,VALID,0.269922,
2008-06-14, 01:42:04,VALID,1003.72,VALID,0,VALID,86.6946,VALID,0,VALID,24.6788,VALID,344,VALID,0.326953,
2008-06-14, 01:43:04,VALID,1003.66,VALID,0,VALID,86.8472,VALID,0,VALID,24.6788,VALID,344,VALID,0,
2008-06-14, 01:44:04,VALID,1003.65,VALID,0,VALID,86.9921,VALID,0,VALID,24.6398,VALID,344,VALID,0.134375,
2008-06-14, 01:45:04,VALID,1003.65,VALID,0,VALID,87.1676,VALID,0,VALID,24.6204,VALID,344,VALID,0.136719,
2008-06-14, 01:46:04,VALID,1003.64,VALID,0,VALID,87.1752,VALID,0,VALID,24.6222,VALID,344,VALID,0.229297,
2008-06-14, 01:47:04,VALID,1003.64,VALID,0,VALID,87.3278,VALID,0,VALID,24.5814,VALID,344,VALID,0.0203125,
2008-06-14, 01:48:04,VALID,1003.62,VALID,0,VALID,87.4804,VALID,0,VALID,24.562,VALID,331,VALID,0.321094,
2008-06-14, 01:49:04,VALID,1003.6,VALID,0,VALID,87.549,VALID,0,VALID,24.562,VALID,337,VALID,0.0414063,
2008-06-14, 01:50:04,VALID,1003.6,VALID,0,VALID,87.6863,VALID,0,VALID,24.5425,VALID,275,VALID,0.261719,
2008-06-14, 01:51:04,VALID,1003.6,VALID,0,VALID,87.7779,VALID,0,VALID,24.523,VALID,339,VALID,0.694922,
2008-06-14, 01:52:04,VALID,1003.59,VALID,0,VALID,87.9152,VALID,0,VALID,24.523,VALID,320,VALID,0.346875,
2008-06-14, 01:53:04,VALID,1003.56,VALID,0,VALID,87.9457,VALID,0,VALID,24.5035,VALID,320,VALID,0.258984,
2008-06-14, 01:54:04,VALID,1003.57,VALID,0,VALID,87.9915,VALID,0,VALID,24.4822,VALID,321,VALID,0,
2008-06-14, 01:55:04,VALID,1003.55,VALID,0,VALID,88.0373,VALID,0,VALID,24.5035,VALID,321,VALID,0.233594,
2008-06-14, 01:56:04,VALID,1003.55,VALID,0,VALID,88.1136,VALID,0,VALID,24.4841,VALID,343,VALID,0.891797,
2008-06-14, 01:57:04,VALID,1003.53,VALID,0,VALID,88.0602,VALID,0,VALID,24.523,VALID,337,VALID,0.741406,
2008-06-14, 01:58:04,VALID,1003.54,VALID,0,VALID,87.9076,VALID,0,VALID,24.5425,VALID,337,VALID,0.455078,
2008-06-14, 01:59:04,VALID,1003.53,VALID,0,VALID,87.8466,VALID,0,VALID,24.562,VALID,330,VALID,0.207813,
2008-06-14, 02:00:04,VALID,1003.51,VALID,0,VALID,87.8313,VALID,0,VALID,24.5814,VALID,330,VALID,0.053125,
2008-06-14, 02:01:04,VALID,1003.5,VALID,0,VALID,87.7855,VALID,0,VALID,24.5814,VALID,338,VALID,0.342187,
2008-06-14, 02:02:04,VALID,1003.5,VALID,0,VALID,87.7779,VALID,0,VALID,24.562,VALID,341,VALID,0.526563,
2008-06-14, 02:03:04,VALID,1003.49,VALID,0,VALID,87.8237,VALID,0,VALID,24.562,VALID,353,VALID,0.757031,
2008-06-14, 02:04:04,VALID,1003.48,VALID,0,VALID,87.8542,VALID,0,VALID,24.5833,VALID,353,VALID,0.642187,
2008-06-14, 02:05:04,VALID,1003.48,VALID,0,VALID,87.8618,VALID,0,VALID,24.5833,VALID,342,VALID,0.573047,
2008-06-14, 02:06:04,VALID,1003.46,VALID,0,VALID,87.8542,VALID,0,VALID,24.562,VALID,352,VALID,0.4875,
2008-06-14, 02:07:04,VALID,1003.47,VALID,0,VALID,87.8847,VALID,0,VALID,24.5833,VALID,337,VALID,0.298047,
2008-06-14, 02:08:04,VALID,1003.45,VALID,0,VALID,87.9686,VALID,0,VALID,24.562,VALID,344,VALID,0.205859,
2008-06-14, 02:09:04,VALID,1003.46,VALID,0,VALID,88.0296,VALID,0,VALID,24.5638,VALID,347,VALID,0.616016,
2008-06-14, 02:10:04,VALID,1003.47,VALID,0,VALID,87.9839,VALID,0,VALID,24.5638,VALID,349,VALID,0.414453,
2008-06-14, 02:11:04,VALID,1003.46,VALID,0,VALID,88.0373,VALID,0,VALID,24.523,VALID,345,VALID,0.308984,
2008-06-14, 02:12:04,VALID,1003.48,VALID,0,VALID,87.9991,VALID,0,VALID,24.5212,VALID,345,VALID,0,
2008-06-14, 02:13:04,VALID,1003.49,VALID,0,VALID,88.0068,VALID,0,VALID,24.5425,VALID,345,VALID,0,
2008-06-14, 02:14:04,VALID,1003.47,VALID,0,VALID,88.1441,VALID,0,VALID,24.523,VALID,345,VALID,0,
2008-06-14, 02:15:04,VALID,1003.51,VALID,0,VALID,88.2127,VALID,0,VALID,24.5443,VALID,345,VALID,0.00976563,
2008-06-14, 02:16:04,VALID,1003.5,VALID,0,VALID,88.2356,VALID,0,VALID,24.5035,VALID,345,VALID,0.0222656,
2008-06-14, 02:17:04,VALID,1003.5,VALID,0,VALID,88.3348,VALID,0,VALID,24.4841,VALID,345,VALID,0.115234,
2008-06-14, 02:18:04,VALID,1003.52,VALID,0,VALID,88.3577,VALID,0,VALID,24.4841,VALID,345,VALID,0.404687,
2008-06-14, 02:19:04,VALID,1003.53,VALID,0,VALID,88.4111,VALID,0,VALID,24.4841,VALID,351,VALID,0.728906,
2008-06-14, 02:20:04,VALID,1003.52,VALID,0,VALID,88.3577,VALID,0,VALID,24.5054,VALID,353,VALID,0.24375,
2008-06-14, 02:21:04,VALID,1003.53,VALID,0,VALID,88.3501,VALID,0,VALID,24.5054,VALID,353,VALID,0.267188,
2008-06-14, 02:22:04,VALID,1003.52,VALID,0,VALID,88.3577,VALID,0,VALID,24.5443,VALID,302,VALID,0.404687,
2008-06-14, 02:23:04,VALID,1003.56,VALID,0,VALID,88.3043,VALID,0,VALID,24.523,VALID,304,VALID,0.0316406,
2008-06-14, 02:24:04,VALID,1003.54,VALID,0,VALID,88.3043,VALID,0,VALID,24.523,VALID,305,VALID,0.084375,
2008-06-14, 02:25:04,VALID,1003.56,VALID,0,VALID,88.2661,VALID,0,VALID,24.523,VALID,316,VALID,0.437109,
2008-06-14, 02:26:04,VALID,1003.57,VALID,0,VALID,88.2509,VALID,0,VALID,24.5035,VALID,350,VALID,0.564062,
2008-06-14, 02:27:04,VALID,1003.58,VALID,0,VALID,88.289,VALID,0,VALID,24.5443,VALID,348,VALID,0.573438,
2008-06-14, 02:28:04,VALID,1003.57,VALID,0,VALID,88.1517,VALID,0,VALID,24.523,VALID,346,VALID,0.375781,
2008-06-14, 02:29:04,VALID,1003.58,VALID,0,VALID,88.1822,VALID,0,VALID,24.523,VALID,349,VALID,0.389844,
2008-06-14, 02:30:04,VALID,1003.57,VALID,0,VALID,88.1899,VALID,0,VALID,24.5443,VALID,348,VALID,0.182422,
2008-06-14, 02:31:04,VALID,1003.61,VALID,0,VALID,88.1899,VALID,0,VALID,24.5035,VALID,348,VALID,0,
2008-06-14, 02:32:04,VALID,1003.61,VALID,0,VALID,88.2051,VALID,0,VALID,24.5054,VALID,348,VALID,0.0148437,
2008-06-14, 02:33:04,VALID,1003.59,VALID,0,VALID,88.2967,VALID,0,VALID,24.4841,VALID,349,VALID,0,
2008-06-14, 02:34:04,VALID,1003.61,VALID,0,VALID,88.3806,VALID,0,VALID,24.4859,VALID,323,VALID,0.414844,
2008-06-14, 02:35:04,VALID,1003.63,VALID,0,VALID,88.3195,VALID,0,VALID,24.4646,VALID,355,VALID,0.4875,
2008-06-14, 02:36:04,VALID,1003.61,VALID,0,VALID,88.2661,VALID,0,VALID,24.4646,VALID,355,VALID,0,
2008-06-14, 02:37:04,VALID,1003.61,VALID,0,VALID,88.3501,VALID,0,VALID,24.4646,VALID,355,VALID,0,
2008-06-14, 02:38:04,VALID,1003.61,VALID,0,VALID,88.3119,VALID,0,VALID,24.4451,VALID,295,VALID,0.328125,
2008-06-14, 02:39:04,VALID,1003.64,VALID,0,VALID,88.2967,VALID,0,VALID,24.4451,VALID,295,VALID,0.00195313,
2008-06-14, 02:40:04,VALID,1003.62,VALID,0,VALID,88.3119,VALID,0,VALID,24.4665,VALID,295,VALID,0.0742188,
2008-06-14, 02:41:04,VALID,1003.42,VALID,0,VALID,88.3806,VALID,0,VALID,24.447,VALID,3,VALID,0.308203,
2008-06-14, 02:42:04,VALID,1003.34,VALID,0,VALID,88.5179,VALID,0,VALID,24.4062,VALID,355,VALID,0.335547,
2008-06-14, 02:43:04,VALID,1003.37,VALID,0,VALID,88.5332,VALID,0,VALID,24.4062,VALID,355,VALID,0.394922,
2008-06-14, 02:44:04,VALID,1003.65,VALID,0,VALID,88.6247,VALID,0,VALID,24.3886,VALID,355,VALID,0.355469,
2008-06-14, 06:53:04,VALID,1004.73,VALID,0,VALID,87.5185,VALID,84.0706,VALID,25.4188,VALID,286,VALID,0.465625,
2008-06-14, 06:54:04,VALID,1004.77,VALID,0,VALID,87.4651,VALID,86.3836,VALID,25.4577,VALID,40,VALID,0.183984,
2008-06-14, 06:55:04,VALID,1004.8,VALID,0,VALID,87.3354,VALID,88.8976,VALID,25.4772,VALID,22,VALID,0.355469,
2008-06-14, 06:56:04,VALID,1004.79,VALID,0,VALID,87.3659,VALID,91.3112,VALID,25.4967,VALID,350,VALID,0.147266,
2008-06-14, 06:57:04,VALID,1004.83,VALID,0,VALID,87.0608,VALID,93.3224,VALID,25.5357,VALID,349,VALID,0.275,
2008-06-14, 06:58:04,VALID,1004.81,VALID,0,VALID,86.7785,VALID,93.7247,VALID,25.5551,VALID,357,VALID,0.786719,
2008-06-14, 06:59:04,VALID,1004.83,VALID,0,VALID,86.9692,VALID,93.7247,VALID,25.5746,VALID,355,VALID,0.259375,
2008-06-14, 07:00:04,VALID,1004.85,VALID,0,VALID,87.2896,VALID,94.7303,VALID,25.635,VALID,354,VALID,0.122266,
2008-06-14, 07:01:04,VALID,1004.86,VALID,0,VALID,87.2515,VALID,95.7359,VALID,25.633,VALID,349,VALID,0.249609,
2008-06-14, 07:02:04,VALID,1004.89,VALID,0,VALID,87.1371,VALID,96.8421,VALID,25.6525,VALID,349,VALID,0.501562,
2008-06-14, 07:03:04,VALID,1004.88,VALID,0,VALID,87.2973,VALID,97.4455,VALID,25.672,VALID,345,VALID,0.209375,
2008-06-14, 07:04:04,VALID,1004.87,VALID,0,VALID,87.2286,VALID,98.0489,VALID,25.7129,VALID,347,VALID,0.229297,
2008-06-14, 07:05:04,VALID,1004.88,VALID,0,VALID,86.9387,VALID,98.6523,VALID,25.7304,VALID,336,VALID,0.474609,
2008-06-14, 07:06:04,VALID,1004.93,VALID,0,VALID,87.0379,VALID,99.5573,VALID,25.7713,VALID,353,VALID,0.774219,
2008-06-14, 07:07:04,VALID,1004.92,VALID,0,VALID,86.7938,VALID,100.462,VALID,25.8103,VALID,349,VALID,0.447656,
2008-06-14, 07:08:04,VALID,1004.9,VALID,0,VALID,86.6031,VALID,101.77,VALID,25.8083,VALID,344,VALID,0.579687,
2008-06-14, 07:09:04,VALID,1004.92,VALID,0,VALID,86.1758,VALID,103.278,VALID,25.8493,VALID,313,VALID,0.698047,
2008-06-14, 07:10:04,VALID,1004.93,VALID,0,VALID,85.9393,VALID,104.988,VALID,25.8687,VALID,346,VALID,0.840234,
2008-06-14, 07:11:04,VALID,1004.95,VALID,0,VALID,86.0538,VALID,106.798,VALID,25.8882,VALID,342,VALID,0.421094,
2008-06-14, 07:12:04,VALID,1004.97,VALID,0,VALID,86.275,VALID,109.111,VALID,25.9057,VALID,342,VALID,0.153906,
2008-06-14, 07:13:04,VALID,1004.96,VALID,0,VALID,86.2216,VALID,111.424,VALID,25.9252,VALID,332,VALID,0.665625,
2008-06-14, 07:14:04,VALID,1004.98,VALID,0,VALID,85.7028,VALID,114.24,VALID,25.9642,VALID,1,VALID,1.03594,
2008-06-14, 07:15:04,VALID,1004.99,VALID,0,VALID,85.8478,VALID,117.156,VALID,26.0051,VALID,352,VALID,0.769531,
2008-06-14, 07:16:04,VALID,1005,VALID,0,VALID,85.8402,VALID,119.871,VALID,26.0246,VALID,353,VALID,0.678516,
2008-06-14, 07:17:04,VALID,1005.01,VALID,0,VALID,86.0156,VALID,122.586,VALID,26.0441,VALID,336,VALID,0.389453,
2008-06-14, 07:18:04,VALID,1005.05,VALID,0,VALID,85.4358,VALID,124.899,VALID,26.083,VALID,353,VALID,1.1207,
2008-06-14, 07:19:04,VALID,1005.07,VALID,0,VALID,85.2833,VALID,126.709,VALID,26.1025,VALID,357,VALID,0.815625,
2008-06-14, 07:20:04,VALID,1005.07,VALID,0,VALID,85.1612,VALID,128.318,VALID,26.1025,VALID,353,VALID,1.39063,
2008-06-14, 07:21:04,VALID,1005.08,VALID,0,VALID,85.7562,VALID,129.525,VALID,26.1025,VALID,358,VALID,0.946094,
2008-06-14, 07:22:04,VALID,1005.1,VALID,0,VALID,85.9088,VALID,130.43,VALID,26.122,VALID,353,VALID,0.322656,
2008-06-14, 07:23:04,VALID,1005.09,VALID,0,VALID,85.8936,VALID,131.335,VALID,26.1609,VALID,337,VALID,0.550391,
2008-06-14, 07:24:04,VALID,1005.13,VALID,0,VALID,85.4969,VALID,131.737,VALID,26.1395,VALID,349,VALID,0.348437,
2008-06-14, 07:25:04,VALID,1005.12,VALID,0,VALID,85.1307,VALID,132.039,VALID,26.1804,VALID,309,VALID,0.941406,
2008-06-14, 07:26:04,VALID,1005.13,VALID,0,VALID,84.8103,VALID,131.939,VALID,26.1999,VALID,355,VALID,0.963672,
2008-06-14, 07:27:04,VALID,1005.16,VALID,0,VALID,84.5585,VALID,131.737,VALID,26.1804,VALID,342,VALID,1.15742,
2008-06-14, 07:28:04,VALID,1005.18,VALID,0,VALID,84.94,VALID,131.536,VALID,26.1609,VALID,1,VALID,0.707031,
2008-06-14, 07:29:04,VALID,1005.19,VALID,0,VALID,85.0239,VALID,131.335,VALID,26.1609,VALID,1,VALID,1.26719,
2008-06-14, 07:30:04,VALID,1005.19,VALID,0,VALID,85.1383,VALID,131.436,VALID,26.1435,VALID,335,VALID,0.859766,
2008-06-14, 07:31:04,VALID,1005.17,VALID,0,VALID,85.1993,VALID,132.039,VALID,26.124,VALID,353,VALID,1.09687,
2008-06-14, 07:32:04,VALID,1005.18,VALID,0,VALID,85.6494,VALID,133.045,VALID,26.1045,VALID,353,VALID,0.642187,
2008-06-14, 07:33:04,VALID,1005.14,VALID,0,VALID,85.0315,VALID,134.453,VALID,26.1025,VALID,344,VALID,1.15664,
2008-06-14, 07:34:04,VALID,1005.13,VALID,0,VALID,85.001,VALID,136.464,VALID,26.081,VALID,342,VALID,1.08008,
2008-06-14, 07:35:04,VALID,1005.14,VALID,0,VALID,85.3138,VALID,138.274,VALID,26.081,VALID,334,VALID,0.187891,
2008-06-14, 07:36:04,VALID,1005.16,VALID,0,VALID,85.4511,VALID,140.084,VALID,26.1415,VALID,2,VALID,0.513672,
2008-06-14, 07:37:04,VALID,1005.16,VALID,0,VALID,85.1917,VALID,142.196,VALID,26.1609,VALID,321,VALID,0.790625,
2008-06-14, 07:38:04,VALID,1005.16,VALID,0,VALID,85.4511,VALID,144.811,VALID,26.1979,VALID,357,VALID,0.677344,
2008-06-14, 07:39:04,VALID,1005.18,VALID,0,VALID,85.5121,VALID,147.928,VALID,26.2584,VALID,357,VALID,0.253906,
2008-06-14, 07:40:04,VALID,1005.18,VALID,0,VALID,84.9247,VALID,151.046,VALID,26.2564,VALID,346,VALID,0.510156,
2008-06-14, 07:41:04,VALID,1005.18,VALID,0,VALID,84.8637,VALID,153.66,VALID,26.2953,VALID,2,VALID,0.810156,
2008-06-14, 07:42:04,VALID,1005.19,VALID,0,VALID,84.9857,VALID,155.973,VALID,26.3343,VALID,355,VALID,0.584375,
2008-06-14, 07:43:04,VALID,1005.21,VALID,0,VALID,85.1612,VALID,157.482,VALID,26.3538,VALID,343,VALID,0.368359,
2008-06-14, 07:44:04,VALID,1005.2,VALID,0,VALID,85.0086,VALID,158.387,VALID,26.3947,VALID,343,VALID,0.259375,
2008-06-14, 07:45:04,VALID,1005.21,VALID,0,VALID,84.5051,VALID,159.392,VALID,26.4317,VALID,329,VALID,0.894141,
2008-06-14, 07:46:04,VALID,1005.22,VALID,0,VALID,83.5286,VALID,160.498,VALID,26.4922,VALID,335,VALID,0.578516,
2008-06-14, 07:47:04,VALID,1005.23,VALID,0,VALID,83.7575,VALID,161.806,VALID,26.4922,VALID,351,VALID,0.610547,
2008-06-14, 07:48:04,VALID,1005.23,VALID,0,VALID,84.4212,VALID,163.616,VALID,26.5096,VALID,351,VALID,0.0433594,